User: anonymous   Login
Location: Charleston
(38.3500°N, 81.6330°W)
Time: 13:11:06
(UTC-04:00)
Language:

Cosmos 1812 Rocket - Orbit

View from above orbital plane
View from above orbital plane
View from above satellite
View from above satellite

Ground track
Ground track

The orbit data is extracted from the following two-line orbital elements,

1 17296U 87003B   18111.46690292  .00000083  00000-0  72734-5 0  9992
2 17296  82.5274  96.5582 0017550 286.1161  73.8121 14.83226041688817
Epoch (UTC): 21 April 2018 11:12:20
Eccentricity: 0.0017550
inclination: 82.5274°
perigee height: 607 km
apogee height: 631 km
right ascension of ascending node: 96.5582°
argument of perigee: 286.1161°
revolutions per day: 14.83226041
mean anomaly at epoch: 73.8121°
orbit number at epoch: 68881

The dashed part of the orbit path shows where the satellite is in the earth's shadow,  

DLR